TimeCDT,TemperatureF,Dew PointF,Humidity,Sea Level PressureIn,VisibilityMPH,Wind Direction,Wind SpeedMPH,Gust SpeedMPH,PrecipitationIn,Events,Conditions,WindDirDegrees,DateUTC
12:15 AM,50.5,47.3,89,29.92,10.0,SSE,6.9,-,N/A,,Clear,160,2013-04-29 05:15:00
12:35 AM,50.0,47.3,90,29.92,10.0,SSE,5.8,-,N/A,,Clear,160,2013-04-29 05:35:00
12:55 AM,49.6,46.8,90,29.92,10.0,SSE,6.9,-,N/A,,Clear,160,2013-04-29 05:55:00
1:15 AM,49.6,46.8,90,29.91,10.0,SSE,5.8,-,N/A,,Clear,160,2013-04-29 06:15:00
1:35 AM,49.5,46.9,91,29.91,10.0,SSE,5.8,-,N/A,,Clear,160,2013-04-29 06:35:00
1:55 AM,49.5,46.8,90,29.91,10.0,South,6.9,-,N/A,,Clear,170,2013-04-29 06:55:00
2:15 AM,49.5,46.8,90,29.91,10.0,SSE,6.9,-,N/A,,Clear,160,2013-04-29 07:15:00
2:35 AM,49.3,46.8,91,29.91,7.0,SSE,6.9,-,N/A,,Clear,160,2013-04-29 07:35:00
2:55 AM,48.6,46.4,92,29.91,7.0,SSE,3.5,-,N/A,,Clear,160,2013-04-29 07:55:00
3:15 AM,48.4,46.4,93,29.91,7.0,Calm,Calm,-,N/A,,Clear,0,2013-04-29 08:15:00
3:35 AM,48.9,46.8,92,29.91,7.0,SE,3.5,-,N/A,,Clear,140,2013-04-29 08:35:00
3:55 AM,48.2,46.4,93,29.90,5.0,ESE,3.5,-,N/A,,Clear,120,2013-04-29 08:55:00
4:15 AM,48.0,46.4,94,29.91,5.0,SE,4.6,-,N/A,,Clear,130,2013-04-29 09:15:00
4:35 AM,48.2,46.6,94,29.91,5.0,SE,3.5,-,N/A,,Clear,140,2013-04-29 09:35:00
4:55 AM,47.1,45.5,94,29.91,4.0,SE,4.6,-,N/A,,Clear,140,2013-04-29 09:55:00
5:15 AM,47.3,45.5,93,29.91,4.0,SSE,4.6,-,N/A,,Clear,150,2013-04-29 10:15:00
5:35 AM,47.5,45.9,94,29.91,5.0,SSE,3.5,-,N/A,,Clear,150,2013-04-29 10:35:00
5:55 AM,47.5,45.9,94,29.90,5.0,SSE,3.5,-,N/A,,Clear,150,2013-04-29 10:55:00
6:15 AM,47.7,46.0,94,29.90,4.0,SSE,3.5,-,N/A,,Clear,150,2013-04-29 11:15:00
6:35 AM,47.7,46.0,94,29.91,3.0,SE,3.5,-,N/A,,Clear,140,2013-04-29 11:35:00
6:55 AM,49.1,47.3,93,29.91,3.0,SSE,4.6,-,N/A,,Clear,150,2013-04-29 11:55:00
7:15 AM,50.0,48.2,94,29.92,4.0,SSE,5.8,-,N/A,,Clear,150,2013-04-29 12:15:00
7:35 AM,51.8,49.5,92,29.91,5.0,SE,5.8,-,N/A,,Clear,140,2013-04-29 12:35:00
7:55 AM,53.4,50.2,89,29.91,7.0,SSE,6.9,-,N/A,,Clear,160,2013-04-29 12:55:00
8:15 AM,55.0,51.3,87,29.92,7.0,South,9.2,-,N/A,,Clear,170,2013-04-29 13:15:00
8:35 AM,56.3,51.8,85,29.91,10.0,SSE,9.2,-,N/A,,Clear,150,2013-04-29 13:35:00
8:55 AM,57.7,52.5,83,29.91,10.0,SSE,10.4,-,N/A,,Clear,160,2013-04-29 13:55:00
9:15 AM,59.7,53.6,80,29.91,10.0,SSE,9.2,-,N/A,,Clear,150,2013-04-29 14:15:00
9:35 AM,61.2,54.0,77,29.90,10.0,South,9.2,-,N/A,,Clear,170,2013-04-29 14:35:00
9:55 AM,63.1,55.0,75,29.90,10.0,South,8.1,-,N/A,,Clear,170,2013-04-29 14:55:00
10:15 AM,65.3,55.8,71,29.89,10.0,South,8.1,-,N/A,,Clear,170,2013-04-29 15:15:00
10:35 AM,66.7,56.3,69,29.88,10.0,SSE,11.5,-,N/A,,Clear,150,2013-04-29 15:35:00
10:55 AM,67.8,56.7,67,29.88,10.0,South,8.1,-,N/A,,Clear,170,2013-04-29 15:55:00
11:15 AM,69.3,57.4,66,29.87,10.0,SSE,10.4,-,N/A,,Clear,160,2013-04-29 16:15:00
11:35 AM,70.0,58.1,66,29.87,10.0,South,12.7,16.1,N/A,,Clear,180,2013-04-29 16:35:00
11:55 AM,71.8,59.5,65,29.86,10.0,South,11.5,17.3,N/A,,Clear,170,2013-04-29 16:55:00
12:15 PM,72.5,59.5,64,29.85,10.0,South,10.4,-,N/A,,Clear,170,2013-04-29 17:15:00
12:35 PM,73.4,59.5,62,29.85,10.0,South,9.2,-,N/A,,Clear,180,2013-04-29 17:35:00
12:55 PM,74.5,60.1,61,29.83,10.0,South,12.7,18.4,N/A,,Clear,170,2013-04-29 17:55:00
1:15 PM,76.1,59.9,57,29.83,10.0,South,11.5,18.4,N/A,,Clear,180,2013-04-29 18:15:00
1:35 PM,76.8,60.1,56,29.82,10.0,South,12.7,-,N/A,,Clear,180,2013-04-29 18:35:00
1:55 PM,77.4,60.3,55,29.81,10.0,SSE,15.0,-,N/A,,Clear,160,2013-04-29 18:55:00
2:15 PM,77.9,60.1,54,29.81,10.0,SSE,13.8,19.6,N/A,,Clear,160,2013-04-29 19:15:00
2:35 PM,78.1,59.9,53,29.80,10.0,South,15.0,18.4,N/A,,Clear,170,2013-04-29 19:35:00
2:55 PM,78.6,59.9,52,29.80,10.0,SSE,13.8,21.9,N/A,,Clear,150,2013-04-29 19:55:00
3:15 PM,79.5,59.5,50,29.78,10.0,South,15.0,20.7,N/A,,Clear,170,2013-04-29 20:15:00
3:35 PM,79.7,59.2,49,29.77,10.0,South,15.0,-,N/A,,Clear,180,2013-04-29 20:35:00
3:55 PM,79.5,58.6,49,29.77,10.0,South,17.3,23.0,N/A,,Clear,170,2013-04-29 20:55:00
4:15 PM,79.2,58.3,49,29.76,10.0,SSE,16.1,20.7,N/A,,Clear,160,2013-04-29 21:15:00
4:35 PM,79.3,57.6,47,29.75,10.0,South,15.0,-,N/A,,Clear,170,2013-04-29 21:35:00
4:55 PM,79.3,58.3,48,29.75,10.0,SSE,16.1,-,N/A,,Clear,150,2013-04-29 21:55:00
5:15 PM,79.2,58.6,49,29.75,10.0,SSE,17.3,-,N/A,,Clear,160,2013-04-29 22:15:00
5:35 PM,78.8,59.4,51,29.75,10.0,SSE,13.8,-,N/A,,Clear,150,2013-04-29 22:35:00
5:55 PM,78.3,59.5,52,29.74,10.0,SSE,15.0,20.7,N/A,,Clear,150,2013-04-29 22:55:00
6:15 PM,77.5,58.3,51,29.74,10.0,SSE,13.8,24.2,N/A,,Clear,150,2013-04-29 23:15:00
6:35 PM,76.6,58.6,54,29.73,10.0,SSE,15.0,19.6,N/A,,Clear,150,2013-04-29 23:35:00
6:55 PM,75.6,59.0,56,29.73,10.0,SE,13.8,23.0,N/A,,Clear,140,2013-04-29 23:55:00
7:15 PM,74.5,59.4,59,29.73,10.0,SE,12.7,-,N/A,,Clear,140,2013-04-30 00:15:00
7:35 PM,73.4,59.4,61,29.73,10.0,SSE,13.8,-,N/A,,Clear,150,2013-04-30 00:35:00
7:55 PM,72.0,59.0,64,29.74,10.0,SSE,12.7,-,N/A,,Clear,150,2013-04-30 00:55:00
8:15 PM,71.1,59.0,66,29.75,10.0,SSE,12.7,18.4,N/A,,Clear,150,2013-04-30 01:15:00
8:35 PM,69.8,59.0,68,29.75,10.0,SSE,13.8,-,N/A,,Clear,150,2013-04-30 01:35:00
8:55 PM,69.8,58.8,68,29.75,10.0,SSE,13.8,-,N/A,,Clear,160,2013-04-30 01:55:00
9:15 PM,69.3,58.5,68,29.76,10.0,SSE,13.8,-,N/A,,Clear,160,2013-04-30 02:15:00
9:35 PM,69.4,58.3,68,29.76,10.0,SSE,12.7,-,N/A,,Clear,160,2013-04-30 02:35:00
9:55 PM,69.3,58.1,68,29.76,10.0,SSE,15.0,-,N/A,,Clear,160,2013-04-30 02:55:00
10:15 PM,69.8,59.0,68,29.76,10.0,SSE,13.8,-,N/A,,Clear,160,2013-04-30 03:15:00
10:35 PM,68.9,58.1,68,29.76,10.0,South,13.8,-,N/A,,Clear,170,2013-04-30 03:35:00
10:55 PM,69.3,58.1,68,29.76,10.0,South,13.8,-,N/A,,Clear,170,2013-04-30 03:55:00
11:15 PM,69.8,58.1,66,29.76,10.0,South,16.1,-,N/A,,Clear,180,2013-04-30 04:15:00
11:35 PM,70.0,58.1,66,29.76,10.0,South,18.4,24.2,N/A,,Clear,170,2013-04-30 04:35:00
11:55 PM,69.8,58.5,67,29.76,10.0,South,17.3,21.9,N/A,,Clear,170,2013-04-30 04:55:00